Stampede Pass, WA

12:12 AM PDT on April 24, 2018 (GMT -0700)
Stampede Pass

Weather History for KSMP - May, 2011

Change the Weather History Date:

Sunday, May 29, 2011

  Actual Average Record
Temperature  
Mean Temperature 37 °F -  
Max Temperature 39 °F 51 °F 78 °F (2017)
Min Temperature 35 °F 36 °F 30 °F (2001)
Degree Days  
Heating Degree Days 28    
Moisture  
Dew Point 37 °F    
Average Humidity 99    
Maximum Humidity 100    
Minimum Humidity 93    
Precipitation  
Precipitation 0.03 in - - ()
Sea Level Pressure  
Sea Level Pressure 29.93 in    
Wind  
Wind Speed 5 mph (West)    
Max Wind Speed 8 mph    
Max Gust Speed -    
Averages and records for this station are not official NWS values.
T = Trace of Precipitation, MM = Missing Value Source: NWS Daily Summary

Daily Weather History Graph

Daily Weather History Graph

Search for Another Location

Airport or City:

Astronomy

May. 29, 2011 Rise Set
Actual Time 5:15 AM PDT 8:50 PM PDT
Civil Twilight 4:36 AM PDT 9:29 PM PDT
Nautical Twilight 3:45 AM PDT 10:21 PM PDT
Astronomical Twilight 2:35 AM PDT 11:31 PM PDT
Moon 3:11 AM PDT (5/29) 6:03 PM PDT (5/29)
Length of Visible Light 16h 52m
Length of Day
15h 35m
Waning Crescent, 9% of the Moon is Illuminated
May 29
Waning Crescent
Jun 1
New
Jun 8
First Quarter
Jun 15
Full
Jun 23
Last Quarter

Hourly Weather History & Observations

Time (PDT) Temp. Windchill Dew Point Humidity Pressure Visibility Wind Dir Wind Speed Gust Speed Precip Events Conditions
12:56 AM 36.0 °F 33.3 °F 36.0 °F 100% 29.92 in 0.2 mi Variable 3.5 mph - 0.00 in Fog Fog
1:56 AM 36.0 °F - 36.0 °F 100% 29.92 in 0.2 mi Calm Calm - 0.01 in Fog Fog
2:56 AM 36.0 °F 31.1 °F 36.0 °F 100% 29.92 in 0.2 mi Variable 5.8 mph - N/A Fog Fog
3:56 AM 36.0 °F 32.1 °F 36.0 °F 100% 29.93 in 0.2 mi Variable 4.6 mph - N/A Fog Fog
4:56 AM 35.1 °F 31.0 °F 35.1 °F 100% 29.93 in 0.2 mi Variable 4.6 mph - N/A Fog Fog
5:56 AM 35.1 °F 30.1 °F 35.1 °F 100% 29.93 in 0.2 mi Variable 5.8 mph - N/A Fog Fog
6:56 AM 35.1 °F 29.3 °F 35.1 °F 100% 29.94 in 0.2 mi Variable 6.9 mph - N/A Fog Fog
7:56 AM 36.0 °F 31.1 °F 36.0 °F 100% 29.95 in 0.2 mi Variable 5.8 mph - N/A Fog Fog
8:56 AM 36.0 °F 32.1 °F 36.0 °F 100% 29.95 in 0.2 mi Variable 4.6 mph - N/A Fog Fog
9:56 AM 37.0 °F 32.4 °F 37.0 °F 100% 29.95 in 0.2 mi Variable 5.8 mph - N/A Fog Fog
10:56 AM 37.0 °F 32.4 °F 37.0 °F 100% 29.95 in 0.2 mi Variable 5.8 mph - N/A Fog Fog
11:13 AM 37.4 °F 32.8 °F 37.4 °F 100% 29.90 in - Variable 5.8 mph - N/A   Overcast
11:24 AM 37.4 °F 33.8 °F 37.4 °F 100% 29.90 in 0.2 mi Variable 4.6 mph - N/A Fog Fog
11:56 AM 37.9 °F 33.5 °F 37.9 °F 100% 29.94 in 0.2 mi Variable 5.8 mph - N/A Fog Fog
12:56 PM - - - N/A% - - Variable 5.8 mph - N/A   Unknown
2:56 PM 39.0 °F 33.4 °F 39.0 °F 100% 29.95 in 0.2 mi West 8.1 mph - N/A Fog Fog
3:05 PM 39.0 °F 33.4 °F 39.0 °F 100% 29.95 in 0.2 mi West 8.1 mph - N/A Fog Fog
4:56 PM 39.0 °F 34.8 °F 39.0 °F 100% 29.96 in 0.2 mi Variable 5.8 mph - N/A Fog Fog
5:40 PM 39.2 °F 34.2 °F 37.4 °F 93% 29.91 in 1.0 mi Variable 6.9 mph - N/A   Overcast
7:56 PM 37.9 °F 34.4 °F 37.9 °F 100% 29.95 in 0.2 mi Variable 4.6 mph - 0.01 in Fog Fog
8:12 PM 39.2 °F 35.9 °F 39.2 °F 100% 29.90 in 0.2 mi Variable 4.6 mph - N/A Fog Fog
8:32 PM 39.2 °F 35.0 °F 39.2 °F 100% 29.90 in 0.2 mi Variable 5.8 mph - N/A Fog Fog
8:42 PM 39.2 °F 34.2 °F 37.4 °F 93% 29.90 in 0.2 mi Variable 6.9 mph - 0.01 in Fog Fog
8:56 PM 39.0 °F 34.0 °F 39.0 °F 100% 29.93 in 0.2 mi Variable 6.9 mph - 0.01 in Fog Fog
9:56 PM 37.9 °F 33.5 °F 37.9 °F 100% 29.94 in 0.2 mi Variable 5.8 mph - 0.00 in Fog Fog
10:56 PM 37.9 °F 32.1 °F 37.9 °F 100% 29.93 in 0.2 mi West 8.1 mph - N/A Fog Fog
11:56 PM 37.0 °F 32.4 °F 37.0 °F 100% 29.92 in 0.2 mi Variable 5.8 mph - N/A Fog Fog